Beaufort, NC

2:28 AM EST on December 16, 2019 (GMT -0500)
Smith

Weather History for KMRH - October, 2019

Change the Weather History Date:

Tuesday, October 8, 2019

  Actual Average Record
Temperature  
Mean Temperature 70 °F -  
Max Temperature 75 °F 77 °F 89 °F (2007)
Min Temperature 66 °F 55 °F 41 °F (1988)
Cooling Degree Days 6    
Growing Degree Days 20 (Base 50)    
Moisture  
Dew Point 70 °F    
Average Humidity 95    
Maximum Humidity 100    
Minimum Humidity 84    
Precipitation  
Precipitation 0.12 in - - ()
Sea Level Pressure  
Sea Level Pressure 29.95 in    
Wind  
Wind Speed 13 mph (NNE)    
Max Wind Speed 22 mph    
Max Gust Speed 31 mph    
Visibility 6 miles    
Events Rain    
Averages and records for this station are not official NWS values.
T = Trace of Precipitation, MM = Missing Value Source: NWS Daily Summary

Daily Weather History Graph

Daily Weather History Graph

Search for Another Location

Airport or City:

Astronomy

Oct. 08, 2019 Rise Set
Actual Time 7:06 AM EDT 6:41 PM EDT
Civil Twilight 6:41 AM EDT 7:06 PM EDT
Nautical Twilight 6:12 AM EDT 7:35 PM EDT
Astronomical Twilight 5:42 AM EDT 8:05 PM EDT
Moon 4:24 PM EDT (10/8) 2:09 AM EDT (10/8)
Length of Visible Light 12h 25m
Length of Day
11h 34m
Waxing Gibbous, 77% of the Moon is Illuminated
Oct 8
Waxing Gibbous
Oct 13
Full
Oct 21
Last Quarter
Oct 27
New
Nov 4
First Quarter

Hourly Weather History & Observations

Time (EDT) Temp. Dew Point Humidity Pressure Visibility Wind Dir Wind Speed Gust Speed Precip Events Conditions
12:37 AM 72.0 °F 71.1 °F 97% 29.97 in 10.0 mi NE 6.9 mph - 0.00 in   Mostly Cloudy
12:58 AM 72.0 °F 71.1 °F 97% 29.97 in 10.0 mi NE 8.1 mph - 0.00 in   Mostly Cloudy
1:58 AM 72.0 °F 72.0 °F 100% 29.97 in 8.0 mi NE 11.5 mph - N/A   Overcast
2:16 AM 72.0 °F 72.0 °F 100% 29.96 in 10.0 mi NNE 10.4 mph - N/A   Overcast
2:58 AM 72.0 °F 71.1 °F 97% 29.94 in 10.0 mi NNE 12.7 mph - 0.00 in Rain Light Rain
3:58 AM 72.0 °F 71.1 °F 97% 29.91 in 10.0 mi NNE 13.8 mph - 0.01 in   Overcast
4:58 AM 72.0 °F 72.0 °F 100% 29.91 in 10.0 mi NNE 10.4 mph - N/A   Overcast
5:58 AM 71.1 °F 71.1 °F 100% 29.93 in 5.0 mi NNE 10.4 mph 18.4 mph 0.00 in Rain Light Rain
6:58 AM 70.0 °F 70.0 °F 100% 29.95 in 10.0 mi NNE 16.1 mph - 0.01 in   Overcast
7:58 AM 70.0 °F 69.1 °F 97% 29.95 in 10.0 mi NNE 17.3 mph 25.3 mph N/A   Overcast
8:11 AM 70.0 °F 69.1 °F 97% 29.94 in 10.0 mi NNE 15.0 mph 23.0 mph N/A   Overcast
8:58 AM 71.1 °F 68.0 °F 90% 29.96 in 10.0 mi NE 12.7 mph 21.9 mph N/A   Overcast
9:58 AM 72.0 °F 68.0 °F 87% 29.96 in 10.0 mi NNE 16.1 mph 24.2 mph N/A   Overcast
10:48 AM 72.0 °F 70.0 °F 93% 29.96 in 6.0 mi NNE 16.1 mph 26.5 mph N/A   Overcast
10:58 AM 72.0 °F 69.1 °F 91% 29.96 in 3.0 mi NNE 16.1 mph 25.3 mph N/A   Overcast
11:55 AM 73.4 °F 69.8 °F 88% 29.95 in 9.0 mi NNE 20.7 mph 31.1 mph N/A   Overcast
11:58 AM 73.0 °F 69.1 °F 87% 29.96 in 8.0 mi NNE 20.7 mph 31.1 mph N/A   Overcast
12:35 PM 72.0 °F 70.0 °F 93% 29.95 in 2.5 mi North 16.1 mph 25.3 mph 0.00 in Rain Light Rain
12:43 PM 72.0 °F 71.1 °F 97% 29.95 in 6.0 mi North 13.8 mph - 0.00 in   Overcast
12:58 PM 73.0 °F 71.1 °F 93% 29.95 in 4.0 mi NNE 18.4 mph 26.5 mph 0.00 in Rain Light Rain
1:17 PM 73.0 °F 71.1 °F 93% 29.94 in 4.0 mi NNE 18.4 mph 25.3 mph 0.00 in Rain Light Rain
1:33 PM 73.0 °F 70.0 °F 90% 29.94 in 3.0 mi North 17.3 mph 26.5 mph 0.00 in Rain Light Rain
1:38 PM 73.0 °F 70.0 °F 90% 29.94 in 2.5 mi NNE 16.1 mph 26.5 mph 0.00 in Rain Light Rain
1:40 PM 72.0 °F 70.0 °F 93% 29.94 in 3.0 mi NNE 16.1 mph 26.5 mph 0.00 in Rain Light Rain
1:49 PM 73.9 °F 71.1 °F 91% 29.93 in 9.0 mi North 16.1 mph 26.5 mph 0.00 in   Overcast
1:58 PM 73.0 °F 69.1 °F 87% 29.94 in 10.0 mi North 18.4 mph 26.5 mph 0.00 in   Overcast
2:58 PM 73.9 °F 70.0 °F 87% 29.92 in 9.0 mi North 19.6 mph 25.3 mph N/A   Overcast
3:32 PM 73.9 °F 70.0 °F 87% 29.92 in 5.0 mi NNE 21.9 mph 28.8 mph 0.00 in Rain Light Rain
3:58 PM 75.0 °F 70.0 °F 84% 29.92 in 10.0 mi NNE 11.5 mph 24.2 mph 0.00 in   Overcast
4:58 PM 73.0 °F 70.0 °F 90% 29.92 in 7.0 mi North 16.1 mph 23.0 mph 0.00 in   Overcast
5:03 PM 73.0 °F 70.0 °F 90% 29.92 in 3.0 mi NNE 18.4 mph 26.5 mph N/A   Overcast
5:13 PM 72.0 °F 70.0 °F 93% 29.92 in 5.0 mi North 16.1 mph 21.9 mph 0.00 in Rain Light Rain
5:16 PM 72.0 °F 70.0 °F 93% 29.92 in 6.0 mi North 13.8 mph 21.9 mph 0.00 in   Overcast
5:58 PM 71.1 °F 70.0 °F 96% 29.94 in 2.0 mi North 15.0 mph 24.2 mph 0.00 in Rain Light Rain
6:51 PM 70.0 °F 70.0 °F 100% 29.94 in 7.0 mi NNE 13.8 mph 21.9 mph 0.01 in   Overcast
6:58 PM 70.0 °F 70.0 °F 100% 29.95 in 7.0 mi North 10.4 mph - 0.01 in Rain Light Rain
7:58 PM 70.0 °F 69.1 °F 97% 29.96 in 5.0 mi North 15.0 mph 27.6 mph 0.00 in Rain Light Rain
8:17 PM 70.0 °F 70.0 °F 100% 29.96 in 9.0 mi North 12.7 mph - 0.00 in   Overcast
8:27 PM 70.0 °F 69.1 °F 97% 29.97 in 5.0 mi North 13.8 mph - 0.00 in   Overcast
8:43 PM 70.0 °F 69.1 °F 97% 29.98 in 2.5 mi North 12.7 mph - 0.01 in Rain Light Rain
8:58 PM 70.0 °F 69.1 °F 97% 29.98 in 2.0 mi North 11.5 mph - 0.02 in Rain Rain
9:12 PM 70.0 °F 69.1 °F 97% 29.98 in 3.0 mi North 11.5 mph - 0.01 in Rain Light Rain
9:25 PM 69.1 °F 69.1 °F 100% 29.98 in 2.5 mi North 11.5 mph - 0.02 in Rain Light Rain
9:36 PM 69.1 °F 68.0 °F 96% 29.98 in 3.0 mi North 10.4 mph 21.9 mph 0.03 in Rain Light Rain
9:46 PM 69.1 °F 69.1 °F 100% 29.99 in 5.0 mi North 11.5 mph 21.9 mph 0.03 in Rain Light Rain
9:58 PM 69.1 °F 69.1 °F 100% 29.99 in 2.5 mi North 13.8 mph - 0.04 in Rain Light Rain
10:25 PM 68.0 °F 68.0 °F 100% 29.99 in 4.0 mi North 13.8 mph - 0.02 in Rain Light Rain
10:44 PM 68.0 °F 66.9 °F 96% 30.00 in 2.5 mi North 15.0 mph 21.9 mph 0.02 in Rain Light Rain
10:58 PM 66.9 °F 66.9 °F 100% 30.00 in 4.0 mi North 15.0 mph 24.2 mph 0.03 in Rain Light Rain
11:58 PM 66.0 °F 66.0 °F 100% 30.00 in 6.0 mi North 16.1 mph 24.2 mph 0.00 in   Overcast